Starlink 4021

operational
NORAD ID: 53149 Int'l Des: 2022-083 Owner: SPXS Country: US Constellation: starlink
LEOCIRCULAR

Über Starlink 4021

Beschreibung wird geladen...

Live-Position

3D-Globus wird geladen...

Nächste Überflüge

Höhenverlauf

Altitude vs Time

uPlot chart will show altitude changes over time

Zweizeiliger Elementsatz

1 53149U 22083T 25304.62250197 .00000921 00000-0 75953-4 0 9998
2 53149 53.2178 23.7299 0001357 86.5998 273.5149 15.08845797181873
Epoch: 31. Okt. 2025 • Age: 25 hours

Aktueller Status

Höhe 539.6 km
Geschwindigkeit 7.59 km/s
Subsatellitenpunkt 10.81°N, 99.38°E
Startdatum 17. Juli 2022
Alter 3.2 years
Typ internet

Technische Details

Klassifizierung Payload
Masse 297.00 kg
Trockenmasse 275.00 kg
Gesamtmasse 297.00 kg
Länge 0.20 m
Durchmesser 2.80 m
Spannweite 9.00 m
Form Box + pan
Hersteller SPXS
Bus-Typ Starlink
Phasenstatus In Orbit
Besitzer/Staat SPXS/US

Große Konstellationen

Loading constellations...